Theta_e
305 313 312 313 316 310 306 308 309 306 305 305 305 306 307 307 307 307 307 302 296 301 307 303 302 301 299 300 298 296 296 293 293 293 293 294 295 296 297 298 298 298 300 300 299 298 298 296 296 295 294 293 292 292 292 291 291 290 290 290 289 288 288 287 285 285 284 284 283 281 280 278 277 276 275 274 275 274 274 274 274 274 275 275 276 277
309 315 310 312 313 306 305 305 303 304 305 305 306 307 307 307 308 306 303 301 297 300 307 304 303 302 300 301 298 295 295 294 293 293 294 295 295 296 297 298 299 299 300 300 299 299 298 297 296 295 294 294 293 293 292 291 290 290 290 289 289 288 288 287 285 284 284 283 282 281 279 278 277 276 274 274 274 274 274 274 274 274 274 275 276 276
315 312 306 304 301 299 303 304 304 306 306 306 305 306 308 308 308 306 302 302 300 300 305 304 301 301 300 301 298 294 294 295 295 295 296 296 295 296 298 299 299 299 300 300 300 299 298 298 296 295 295 294 294 293 292 291 290 290 290 290 289 288 288 287 285 285 284 283 282 280 279 277 276 275 274 274 274 273 273 273 273 273 274 274 275 276
312 308 303 297 297 303 306 305 307 307 306 307 306 307 311 307 305 308 305 303 303 300 301 302 300 300 300 302 301 294 293 295 295 295 296 295 296 297 298 299 298 299 300 300 300 300 299 298 297 296 296 295 294 293 292 292 291 291 290 289 289 288 288 287 285 285 284 283 281 280 278 277 276 275 274 273 273 273 273 273 273 273 273 274 275 276
307 302 298 296 300 306 305 304 306 306 306 308 307 308 312 307 302 305 304 300 302 301 299 300 303 305 304 307 308 298 291 293 293 294 295 295 296 297 297 298 299 300 300 300 301 300 299 298 298 297 296 295 294 293 293 292 291 291 290 289 289 288 288 287 285 284 284 283 281 279 278 277 275 275 274 273 273 273 273 273 273 273 273 273 274 275
305 298 298 301 304 305 304 305 304 303 306 309 309 306 306 305 301 302 302 300 305 306 300 300 307 313 310 310 311 303 296 296 293 292 294 296 296 296 297 299 300 301 300 301 301 300 300 299 298 297 296 295 294 294 293 292 291 290 290 290 289 289 288 287 286 284 283 282 280 279 277 276 275 274 274 273 273 273 272 272 273 274 274 273 273 274
303 298 299 304 307 306 305 305 302 303 307 308 306 303 301 303 302 302 301 301 307 308 300 299 305 310 308 307 308 303 301 301 297 293 293 294 296 296 298 301 301 301 301 301 301 300 300 299 299 298 297 296 296 295 294 292 291 290 290 290 289 289 288 287 286 284 283 282 280 279 277 276 275 274 273 273 272 272 272 272 273 273 274 274 273 273
302 301 301 304 306 305 304 304 303 304 309 308 303 300 302 302 301 302 300 301 304 303 300 299 301 305 307 305 302 298 302 305 303 301 297 294 298 300 300 302 302 302 302 301 301 301 301 300 299 298 298 297 296 295 293 292 291 291 290 290 289 289 288 287 286 284 283 282 280 278 277 276 275 274 273 273 272 272 272 272 272 273 273 273 273 273
301 304 304 304 305 304 304 304 303 303 305 306 301 299 301 300 300 300 299 302 300 300 305 303 298 304 309 306 302 297 301 305 306 309 303 297 301 303 302 303 302 302 302 301 302 301 300 300 299 298 297 296 296 294 293 292 291 291 290 290 289 289 288 287 286 284 283 281 279 278 276 275 274 273 273 272 272 272 272 272 272 272 273 273 273 272
300 302 302 303 305 305 304 301 301 303 303 301 298 299 300 299 300 300 300 303 301 302 311 306 298 303 309 308 306 301 303 308 311 313 305 298 302 304 302 303 303 302 302 302 302 301 300 300 298 298 297 296 296 295 293 292 291 291 290 290 290 289 288 287 286 284 283 281 279 278 276 275 274 273 273 272 272 272 272 272 272 273 273 273 272 272
299 300 300 301 302 302 301 298 297 300 299 297 299 302 302 300 299 299 301 302 302 308 312 304 298 302 308 308 309 307 309 314 314 312 306 300 302 304 303 303 303 302 302 301 301 300 300 299 298 297 297 296 296 295 294 293 292 291 291 290 290 289 288 287 285 284 282 281 279 277 276 275 274 273 272 272 272 272 272 272 272 273 273 272 272 271
301 302 303 300 299 299 300 299 297 295 296 298 303 304 305 305 301 302 306 303 305 315 311 301 299 302 305 308 310 309 309 310 308 309 309 303 302 303 303 303 303 302 302 301 301 300 299 299 298 297 297 296 296 295 294 293 293 292 291 291 290 289 288 286 285 284 282 280 278 277 276 275 274 273 272 272 272 272 272 272 273 273 272 272 272 271
307 305 302 299 299 299 300 303 301 298 300 303 305 307 309 312 309 310 313 308 310 313 303 299 301 301 303 305 305 306 306 305 301 302 304 301 300 303 303 303 303 302 302 301 301 300 299 299 298 298 297 296 296 295 294 294 293 292 291 291 290 289 288 286 285 283 282 280 278 277 276 274 274 273 272 272 272 272 272 272 272 272 272 271 271 271
313 307 301 301 302 299 299 304 305 303 304 303 304 309 312 311 312 315 314 307 309 309 299 297 300 302 306 307 306 306 304 302 299 298 299 299 300 302 302 302 303 302 302 301 300 300 299 299 299 298 297 296 296 295 294 293 293 292 291 291 290 289 287 286 284 283 281 280 278 276 276 274 273 273 272 272 272 272 272 272 272 272 271 271 270 271
312 310 304 302 302 299 298 301 302 303 303 301 300 303 308 310 310 312 313 310 310 308 301 297 301 307 311 310 306 303 300 299 299 299 299 299 300 300 301 302 303 302 302 301 301 300 300 299 298 298 297 297 296 295 294 294 293 292 291 291 290 288 287 286 284 283 281 279 278 276 275 274 273 273 273 273 272 272 272 272 272 272 271 270 270 270
307 309 303 298 297 297 299 297 296 301 303 300 298 301 306 309 309 307 307 305 303 304 303 301 304 308 307 306 303 298 298 297 296 296 297 299 301 300 301 303 302 302 302 301 301 300 300 299 298 298 297 297 296 295 294 294 293 292 291 290 289 288 286 285 284 283 281 279 277 276 275 274 273 273 273 273 273 272 272 272 272 271 271 270 270 270
306 308 302 298 297 295 297 297 295 300 304 300 299 305 303 300 305 307 302 298 297 303 307 303 305 306 304 308 308 304 305 304 300 297 296 299 302 300 302 303 302 302 301 301 301 300 300 299 298 298 297 297 296 295 295 294 293 292 291 290 289 287 286 285 284 282 280 279 278 276 275 275 274 273 273 273 273 272 272 272 272 271 271 270 270 270
304 309 304 299 300 297 295 296 295 295 300 302 303 304 299 296 302 305 302 303 304 307 307 303 305 307 306 310 311 309 310 311 310 303 297 299 302 301 302 302 301 301 301 300 300 300 300 299 298 298 297 297 296 295 295 294 293 292 291 290 288 287 286 285 284 282 280 279 278 276 275 275 274 274 274 273 273 272 272 272 272 271 271 270 270 270
302 308 306 298 299 299 294 297 300 296 295 299 300 299 298 301 307 304 303 307 308 306 308 304 302 302 305 308 310 310 309 309 308 305 303 302 301 300 301 301 301 301 300 300 300 300 299 299 298 298 297 296 296 295 294 293 293 292 291 289 288 287 286 285 284 282 280 279 277 276 275 275 274 274 274 273 272 272 272 272 272 272 271 271 270 270
301 305 308 299 296 298 297 300 305 302 296 296 297 297 298 302 306 304 302 305 306 306 308 307 304 304 305 308 309 308 307 305 305 306 305 301 298 300 300 300 300 300 300 300 299 299 299 299 298 298 297 296 295 295 294 293 292 292 290 289 288 287 286 285 284 282 280 279 277 276 275 275 274 274 274 273 272 272 272 272 272 272 272 271 270 270
302 303 307 304 298 299 302 302 304 305 302 300 300 301 300 299 300 301 299 300 305 307 307 307 307 306 305 305 306 305 306 306 305 304 302 297 298 300 299 299 300 299 300 300 299 299 299 298 298 297 297 296 295 295 294 293 293 291 290 289 288 288 287 285 284 282 280 279 277 276 276 275 274 274 274 273 273 272 272 272 272 272 272 271 271 271
302 302 306 307 303 304 305 300 296 300 302 303 304 305 304 302 302 303 302 300 300 302 306 306 305 304 304 306 307 305 305 303 300 298 297 296 297 299 299 299 300 299 299 299 299 299 298 298 298 297 296 296 295 295 294 293 293 291 291 290 289 288 287 286 284 282 280 278 277 277 276 275 274 274 274 274 273 272 272 272 272 272 272 272 272 271
299 301 304 305 304 303 301 294 291 293 296 299 301 301 302 303 304 306 306 304 300 298 299 300 301 303 303 304 305 303 300 298 297 295 295 296 297 298 299 299 298 298 298 298 298 298 298 297 297 296 296 296 295 295 294 293 293 292 291 290 289 288 287 286 285 282 280 279 278 277 276 275 274 274 274 274 273 273 272 272 272 272 272 272 272 272
298 301 303 305 306 303 298 293 291 291 294 297 299 298 299 301 303 304 303 302 302 300 299 300 301 303 301 300 298 297 296 296 298 297 297 297 298 298 298 298 297 297 297 297 298 297 297 297 297 296 296 295 295 295 294 293 293 292 291 291 290 289 288 286 284 282 281 279 278 277 276 275 274 274 275 274 274 273 272 272 272 272 273 273 273 273
300 304 304 305 308 307 305 305 301 297 297 298 300 298 297 299 300 299 297 296 299 302 302 302 302 302 302 301 298 298 298 297 298 298 298 298 298 297 297 297 297 297 297 297 297 297 297 297 296 296 296 295 295 294 294 293 293 292 292 291 290 289 288 286 284 283 281 279 278 277 276 275 275 275 275 274 274 273 273 272 272 272 273 274 274 273
300 304 303 303 307 306 308 310 307 305 302 299 300 298 295 297 298 300 300 299 300 300 299 302 303 301 301 302 300 299 299 298 298 298 298 298 297 297 297 297 297 297 296 296 296 296 296 295 295 295 295 295 295 294 293 293 292 292 291 291 290 289 288 286 285 283 281 279 278 278 277 276 275 275 275 274 274 273 273 273 272 273 273 274 274 273
299 300 300 303 306 305 305 305 301 301 301 300 301 300 298 297 296 299 302 301 301 300 299 300 301 299 299 299 299 299 299 298 297 296 297 297 297 297 296 296 296 296 296 296 295 295 295 294 294 294 294 294 294 293 293 292 292 292 291 290 290 289 288 287 285 283 281 279 278 278 277 276 275 275 275 274 274 273 273 273 273 273 274 274 274 274
301 301 300 301 303 302 302 301 298 298 298 298 299 299 299 298 296 297 299 300 301 301 300 299 299 299 299 298 299 299 298 297 296 295 296 296 296 296 296 296 296 295 295 295 294 294 294 294 294 293 293 293 293 293 292 292 291 291 290 290 290 289 288 286 284 283 282 280 279 278 278 277 275 274 274 274 274 274 273 273 273 273 274 274 274 274
300 302 299 298 301 301 299 297 297 297 297 297 298 298 298 298 297 297 298 298 299 299 299 299 300 299 298 298 298 297 296 296 295 295 295 295 295 295 295 295 295 295 294 294 294 294 293 293 293 293 293 292 292 292 291 291 291 290 290 290 289 289 288 286 284 283 282 280 279 278 278 276 275 275 274 274 274 274 274 273 273 273 273 274 274 274
298 304 300 296 299 300 299 298 297 297 298 297 298 298 297 297 297 296 296 296 296 296 297 297 297 296 296 296 296 295 295 295 295 295 295 295 295 295 294 294 294 294 294 293 293 293 293 293 292 292 292 291 291 291 291 290 290 290 290 289 288 288 288 286 285 284 283 281 279 278 277 276 275 275 275 274 274 274 274 274 273 273 273 274 274 274
296 302 299 296 299 301 301 301 299 298 298 297 297 297 297 296 297 295 295 295 295 296 296 295 295 296 295 295 295 295 295 295 294 295 294 294 294 294 294 294 293 293 293 293 293 293 292 292 292 291 291 291 291 291 290 290 289 289 289 288 288 288 287 286 285 284 283 281 279 278 277 276 275 275 275 275 274 274 274 273 273 273 273 274 274 275
296 299 299 298 301 302 301 301 300 297 297 297 299 301 301 301 301 300 298 297 297 298 297 296 297 298 296 295 295 294 294 294 293 294 294 294 294 294 294 293 293 293 293 293 292 292 292 292 291 291 291 291 291 291 291 290 289 288 288 288 288 286 285 285 284 284 283 281 279 278 277 277 276 275 275 275 274 274 273 273 273 272 272 273 274 274
295 298 300 298 301 304 302 299 298 297 301 303 301 301 302 303 303 301 300 298 296 296 297 298 298 297 296 294 294 294 293 293 293 293 293 293 293 293 293 293 292 292 292 292 292 292 292 291 291 291 291 291 291 291 291 291 290 289 288 287 286 285 285 285 284 283 282 281 279 278 277 277 276 275 274 274 274 274 273 273 273 272 272 273 274 274
292 296 298 295 300 306 303 298 297 300 305 306 301 299 301 301 300 300 299 299 297 295 297 299 297 295 294 294 294 293 293 293 293 293 293 293 293 293 293 292 292 292 292 292 292 292 291 291 291 291 291 291 291 291 291 291 290 290 289 287 286 285 285 284 284 283 282 281 279 278 277 277 276 275 274 274 274 274 273 273 272 272 272 272 273 274
295 295 296 295 297 302 301 300 303 307 307 303 299 299 299 298 299 299 298 298 297 296 296 297 295 294 294 293 293 293 293 293 293 292 293 293 293 292 292 292 292 292 292 292 291 291 291 291 290 290 291 291 291 290 290 290 290 289 288 287 286 286 285 284 284 283 282 281 280 278 277 277 276 275 274 274 274 273 273 272 272 272 271 271 272 273
299 298 297 296 297 299 300 301 304 305 303 299 298 298 296 295 298 297 297 298 297 295 295 294 294 294 293 293 293 293 293 293 292 292 293 293 293 292 292 292 292 292 292 291 291 291 290 290 290 290 290 290 290 290 289 289 288 288 288 287 286 285 285 284 284 284 283 282 281 279 277 277 276 275 274 274 273 273 273 273 272 271 271 270 271 272
297 299 298 297 297 297 299 300 301 302 300 298 298 297 295 294 296 295 296 297 295 294 294 294 294 293 293 293 293 292 292 292 292 292 293 293 292 292 292 292 291 291 291 290 290 290 290 290 290 290 290 290 289 289 289 289 288 287 287 286 285 285 284 283 284 284 283 282 281 279 278 277 277 276 275 274 273 273 273 272 272 271 270 270 270 271
291 296 298 297 297 296 298 300 302 304 304 299 296 296 294 294 293 292 294 296 295 293 294 294 293 293 292 292 293 292 292 292 292 292 292 292 292 292 291 291 291 291 290 290 290 289 289 289 289 289 289 289 289 288 288 288 288 287 287 286 285 284 283 282 283 283 282 282 281 280 278 277 277 275 275 274 274 273 273 272 272 271 270 270 270 270
291 295 297 297 298 298 298 300 302 304 304 298 294 295 295 293 292 290 293 298 297 293 293 294 293 292 292 292 292 292 292 292 292 292 292 292 291 291 291 291 290 290 290 289 289 289 289 289 289 288 288 288 288 288 287 288 288 288 287 286 285 284 283 283 283 283 282 281 281 279 278 277 276 275 274 274 274 274 273 273 272 270 270 269 269 270
296 297 297 297 299 298 297 299 301 301 300 297 295 296 295 292 292 292 295 298 297 294 293 293 292 292 292 292 292 292 292 292 292 292 291 291 291 291 290 290 290 290 289 289 289 289 288 288 288 288 288 288 288 287 287 287 287 287 287 287 285 284 284 284 284 283 281 280 279 278 277 277 276 275 274 274 274 273 273 273 272 271 270 269 269 269
297 297 295 295 299 298 296 298 299 300 299 296 294 295 294 292 293 295 295 295 294 293 293 293 292 292 292 292 292 292 291 292 291 291 291 291 290 290 290 289 289 289 289 289 289 288 288 288 287 287 287 287 287 287 287 286 286 285 286 286 286 286 285 284 283 281 280 279 279 278 277 277 276 275 274 274 274 273 273 272 272 271 270 270 269 269
298 297 294 294 297 296 295 297 299 299 298 294 293 295 294 294 295 295 294 294 293 293 293 292 293 292 292 292 292 291 291 291 290 290 290 290 289 289 289 289 289 289 289 289 289 288 288 288 287 287 287 287 287 287 287 286 285 285 284 284 285 286 286 284 283 282 281 280 279 278 277 276 276 275 274 274 273 273 273 272 271 271 270 270 270 269
297 299 299 298 296 294 295 298 299 299 297 294 294 295 294 294 295 294 293 293 293 292 292 292 292 292 292 291 291 290 290 290 290 289 289 289 289 289 289 289 289 289 289 288 288 288 288 288 287 286 286 286 286 286 287 286 285 284 283 283 284 285 285 285 284 283 281 280 279 278 277 276 276 274 273 273 273 273 272 272 271 270 270 270 270 270
296 296 299 299 296 296 300 301 299 298 296 294 294 294 294 294 294 293 293 292 292 292 292 292 292 292 291 291 290 290 290 289 289 289 289 288 288 288 288 288 288 288 288 288 288 288 288 287 286 286 286 286 286 286 287 285 284 284 283 283 283 284 284 285 284 283 282 281 279 278 277 276 275 274 273 273 273 273 272 272 271 270 270 269 269 269
296 295 296 297 297 297 298 298 297 295 294 294 294 294 293 294 293 293 292 292 291 292 291 291 291 291 291 290 290 290 289 289 289 289 288 288 288 288 288 287 287 287 288 287 288 288 288 287 286 285 285 285 286 286 286 284 283 283 283 283 283 283 284 284 284 283 282 281 280 278 276 275 274 274 273 272 273 273 272 271 271 270 270 269 269 269
295 293 293 295 298 296 294 294 294 293 293 293 293 293 293 293 293 292 292 291 291 291 291 291 291 291 290 290 290 289 289 289 289 289 288 288 287 287 287 287 286 287 287 287 287 288 287 287 286 285 285 285 286 286 284 283 282 282 282 282 282 283 283 284 284 283 282 281 280 278 276 275 274 274 273 272 272 272 271 271 270 270 270 269 268 268
295 293 293 295 296 295 294 294 293 293 293 293 292 293 293 293 292 292 292 291 291 291 291 291 290 290 290 290 289 289 289 289 289 288 288 287 287 287 286 286 285 286 286 287 287 287 287 286 285 285 285 285 285 284 282 282 282 282 282 282 282 283 283 283 283 283 282 281 280 278 276 275 274 274 273 272 272 272 271 270 270 269 269 269 269 268
294 294 294 295 295 294 294 294 293 292 293 292 292 293 293 292 292 292 291 291 291 290 290 290 290 290 290 289 289 289 289 289 288 288 288 287 287 286 285 285 285 285 285 286 287 287 286 285 285 285 285 284 284 282 282 282 282 281 282 282 283 283 283 283 283 282 282 281 279 278 276 275 274 273 272 272 272 272 271 271 270 270 270 270 269 268
293 293 293 293 293 293 293 293 292 292 292 292 292 292 292 292 292 291 291 291 290 290 290 289 289 289 289 289 289 289 289 289 288 288 287 287 286 285 284 284 284 284 285 286 286 285 285 285 284 284 284 283 283 282 282 282 281 281 281 282 282 283 283 283 282 282 281 280 279 278 276 275 274 273 272 271 271 271 271 271 270 269 269 269 268 267
292 292 292 293 293 293 292 292 292 291 291 291 291 291 291 291 291 291 290 290 289 289 289 289 289 289 288 289 289 289 289 289 288 287 287 286 285 284 283 283 284 285 285 285 285 284 284 283 283 282 282 282 281 281 281 280 280 280 281 281 282 282 282 282 281 281 280 280 279 278 276 275 273 272 271 271 270 271 270 270 269 269 268 268 268 267
291 291 292 292 292 292 292 292 292 291 291 291 291 291 291 291 290 290 290 289 289 289 288 288 288 288 288 288 289 289 289 288 288 287 285 284 283 283 283 283 284 285 285 284 283 283 282 281 281 280 279 279 279 279 279 279 279 280 280 280 281 281 281 281 280 280 280 279 278 277 276 274 273 272 271 270 270 270 270 269 269 268 268 268 267 267
Wind_Speed
5 4 2 3 5 4 4 5 5 5 6 5 4 3 4 4 5 5 5 4 2 2 7 6 7 14 15 10 14 18 20 24 27 26 28 31 32 34 36 38 39 39 37 34 35 35 33 32 32 32 33 35 37 38 38 37 37 36 36 36 35 34 35 36 36 37 39 41 42 44 45 43 40 35 32 31 28 25 21 18 17 18 20 20 20 20
5 4 3 6 6 5 3 5 5 5 5 4 4 2 2 3 6 5 2 4 1 1 5 3 7 16 16 10 12 13 13 19 28 27 29 33 33 35 37 38 40 38 37 36 36 36 35 34 33 33 35 37 39 39 38 38 37 37 37 37 36 34 35 36 37 38 40 41 42 43 43 41 38 34 31 32 30 26 20 18 18 18 19 18 18 18
5 2 4 4 7 7 5 4 4 4 5 3 3 1 3 3 5 5 2 3 3 2 5 5 8 17 19 10 9 13 15 20 27 29 31 31 31 34 36 37 38 38 37 37 36 36 36 35 33 35 36 38 40 39 39 38 38 39 39 37 35 35 36 36 37 39 40 42 42 42 42 40 37 33 32 32 31 27 21 18 16 18 19 18 17 17
1 3 3 5 8 7 5 4 6 5 3 2 3 2 4 3 2 4 4 4 3 3 5 6 6 13 16 9 5 10 15 18 20 23 27 28 30 34 35 35 35 37 37 36 35 35 36 35 34 35 37 38 40 40 40 39 39 40 39 37 36 36 36 37 37 39 41 41 41 42 41 39 36 33 32 31 30 27 23 19 16 16 18 19 19 17
2 3 2 6 5 5 3 2 5 3 2 2 4 5 4 3 2 4 4 6 6 3 2 5 5 7 8 6 5 4 6 13 16 18 24 28 32 34 34 34 35 36 36 35 34 33 34 35 34 34 36 37 39 40 40 40 40 40 39 38 37 36 37 37 38 39 40 41 41 41 40 38 35 33 33 31 29 26 24 22 17 15 16 18 21 20
1 2 3 5 4 5 3 2 2 4 2 4 4 6 5 2 1 3 5 7 5 4 2 3 4 5 5 5 7 4 4 7 9 12 22 29 29 30 33 34 34 34 34 34 34 32 33 35 34 34 34 36 38 39 40 40 40 40 39 38 37 37 37 38 38 39 40 40 40 40 39 36 34 34 33 30 28 26 25 24 20 17 16 17 20 21
1 1 2 4 4 5 3 2 4 4 3 3 4 4 5 4 4 5 4 3 2 3 3 3 0 5 6 6 8 4 5 8 6 8 19 26 27 29 32 32 31 31 31 32 32 30 31 32 32 32 32 34 36 37 38 39 39 40 40 39 37 37 38 38 38 39 40 40 40 40 38 35 34 34 33 29 27 26 26 25 23 20 17 17 18 21
2 3 3 4 5 4 2 3 4 6 5 2 3 3 3 3 4 4 1 2 3 3 4 2 3 3 6 7 5 3 5 9 8 8 13 22 27 28 28 28 27 27 27 28 29 28 28 29 29 30 30 32 34 36 38 39 39 40 39 38 38 38 38 38 38 39 40 39 40 39 36 35 34 33 32 29 27 26 26 26 25 23 19 17 17 19
2 3 3 4 4 2 3 4 6 7 2 5 4 2 2 2 2 2 4 3 1 3 5 3 2 1 6 6 3 3 4 7 9 9 10 16 21 21 22 23 22 23 23 25 26 26 26 26 27 28 29 31 33 36 37 38 39 39 39 39 39 39 38 38 39 39 39 39 40 39 36 34 33 32 30 29 28 27 26 26 26 24 21 17 16 18
1 2 4 6 4 4 5 3 6 7 2 3 4 3 3 3 3 3 4 2 2 2 5 5 1 1 5 7 3 2 2 6 8 7 8 13 15 15 17 18 18 20 21 23 25 26 26 25 25 26 28 30 32 34 36 37 38 39 40 40 40 38 38 38 39 39 39 39 40 37 35 34 33 30 29 28 28 27 27 27 26 24 20 16 15 17
1 0 1 3 3 4 4 2 4 6 2 1 3 3 3 4 4 3 2 3 2 3 6 5 1 2 3 6 4 3 4 5 5 5 8 11 13 15 16 17 18 19 21 23 25 26 26 25 25 26 28 29 30 33 34 36 38 39 40 40 39 38 38 38 39 39 39 40 39 36 34 34 32 29 28 28 28 27 27 27 26 24 20 16 15 16
3 1 1 1 2 3 4 2 1 1 2 2 3 3 3 3 3 3 4 3 1 4 5 4 2 2 2 7 5 5 6 4 5 5 6 9 15 17 17 17 19 20 22 23 25 26 27 27 27 27 28 28 29 32 33 34 36 38 39 39 38 38 38 38 39 38 39 39 37 35 34 33 30 28 28 28 28 28 27 27 26 24 21 18 16 16
3 3 2 1 2 3 3 0 3 3 3 3 3 4 4 4 4 3 4 1 2 5 3 1 2 1 5 9 9 10 11 8 9 12 13 14 18 20 18 19 21 22 23 24 26 27 28 29 29 29 29 29 30 31 32 33 35 36 37 38 38 38 38 38 39 38 39 38 36 34 33 32 30 28 28 28 28 27 27 27 26 24 22 20 18 18
3 3 2 1 1 2 3 2 1 1 2 2 1 2 2 1 3 4 4 3 4 4 2 2 2 3 5 7 9 12 13 12 12 16 18 18 19 21 22 22 23 24 25 26 27 28 29 30 31 31 31 31 32 32 33 34 35 36 37 38 38 38 38 38 39 39 38 38 35 33 33 31 29 29 28 28 28 27 26 26 25 24 22 22 21 20
1 4 1 2 1 0 2 2 3 3 3 1 2 4 3 3 2 4 4 3 6 5 3 3 1 3 3 4 6 10 12 14 15 15 17 19 21 23 24 23 24 26 26 27 28 29 30 31 32 33 33 33 34 33 34 34 35 36 37 38 38 37 37 38 39 39 38 37 34 33 32 31 29 29 28 28 27 26 26 25 24 24 23 23 23 22
1 5 3 1 1 1 1 1 2 4 3 0 2 4 1 4 4 2 3 4 2 4 4 2 3 5 4 6 7 6 8 12 12 13 14 17 19 20 21 23 24 27 28 28 29 29 30 30 31 33 33 34 35 35 35 35 36 37 37 37 37 37 37 39 39 39 37 36 34 33 31 30 29 29 28 28 27 26 25 25 25 24 24 24 24 24
1 4 3 3 2 3 2 1 1 2 1 1 2 2 3 3 5 2 2 1 3 2 4 2 3 5 4 7 7 6 6 7 6 6 9 13 16 17 21 24 26 29 30 30 30 30 30 30 30 31 32 34 35 36 36 36 36 36 37 37 37 37 38 39 39 38 36 35 34 32 31 30 30 29 28 27 26 26 25 24 24 24 24 24 24 24
1 4 4 1 1 2 2 1 3 3 3 3 2 4 2 2 4 3 1 4 3 2 5 1 4 5 3 5 7 8 7 7 6 7 10 14 16 18 22 26 29 31 33 33 33 33 33 32 32 31 32 32 33 35 36 36 36 37 37 38 38 38 38 38 38 38 36 35 33 32 31 30 30 29 28 27 26 26 25 23 23 23 23 23 23 23
2 2 6 1 1 3 3 2 2 4 3 3 3 2 2 2 1 1 1 1 1 3 5 4 4 3 4 4 5 5 5 7 8 8 9 12 16 20 25 29 33 36 37 38 37 36 36 35 34 33 32 32 32 34 35 35 36 37 38 38 38 38 38 37 38 38 36 34 33 32 31 30 30 29 28 27 26 25 24 23 23 23 23 23 23 23
2 0 4 2 1 3 3 1 2 1 3 3 1 1 2 2 3 1 1 2 2 3 4 5 5 3 6 6 3 5 8 7 8 8 7 11 17 23 27 32 36 38 40 42 41 40 39 38 37 35 34 34 33 33 34 35 36 38 38 39 39 38 38 38 38 38 36 33 33 32 31 30 30 29 28 27 26 26 24 24 24 23 23 23 22 23
2 1 3 4 3 1 1 2 5 5 2 2 1 1 1 1 1 1 1 2 3 2 2 3 7 6 4 4 5 7 9 7 7 7 7 14 23 28 31 34 37 40 42 44 45 44 43 41 39 37 36 35 34 34 35 36 37 38 38 40 39 39 39 38 38 37 35 33 33 33 31 30 29 29 28 27 26 26 25 24 24 24 23 22 22 21
1 2 3 3 3 3 4 3 3 5 5 4 4 4 3 3 3 0 3 1 2 2 4 2 8 8 2 4 6 6 6 6 7 8 10 19 28 32 35 37 38 40 43 45 46 46 46 44 42 39 38 37 37 37 37 37 38 38 39 40 40 40 39 39 38 36 34 32 33 33 31 30 29 29 28 27 27 26 25 24 24 23 23 22 20 20
1 3 1 4 5 4 4 2 1 2 4 4 2 2 3 4 5 4 4 3 0 2 2 3 5 6 1 3 5 4 3 7 13 14 16 24 30 33 36 38 39 41 43 45 47 47 47 46 44 41 39 39 39 39 39 39 39 40 40 40 40 41 40 39 37 35 34 33 33 33 31 30 30 29 28 28 27 26 25 24 24 23 23 21 19 18
1 2 1 4 5 3 3 3 3 2 3 1 1 1 3 2 3 5 5 3 2 3 2 1 6 6 1 2 4 3 5 13 21 23 23 27 31 33 35 37 39 41 43 45 47 47 48 47 45 44 42 41 41 41 41 42 42 42 42 41 42 42 41 39 37 35 34 34 33 33 32 31 30 30 29 28 27 26 25 24 24 23 22 20 18 17
1 1 1 3 7 6 5 5 5 4 1 2 3 1 2 4 5 3 2 2 2 5 7 4 9 8 2 4 8 10 12 15 22 28 30 30 32 34 36 39 41 42 44 46 47 47 47 47 46 46 45 44 44 44 44 44 45 45 45 44 43 43 41 39 37 36 35 34 33 33 32 31 30 30 29 28 27 26 25 24 23 23 22 20 19 18
1 1 1 0 3 5 6 6 4 2 1 2 2 2 3 4 5 3 1 2 3 4 6 5 9 11 8 10 15 15 13 14 21 29 34 35 35 36 38 41 43 43 45 45 45 46 46 47 47 46 47 47 47 47 46 46 48 49 48 47 45 44 42 40 38 37 36 35 34 33 32 31 31 30 29 28 27 26 25 24 23 23 22 20 19 18
1 1 2 5 6 7 8 7 2 1 3 6 6 5 5 4 5 4 3 2 4 2 2 7 10 14 16 15 15 13 13 14 17 24 31 35 37 37 38 40 41 42 42 41 42 44 45 46 47 47 48 48 48 48 48 48 49 50 51 50 48 45 43 41 39 38 37 37 35 34 32 31 30 29 28 28 28 27 26 25 24 23 22 21 20 20
3 2 4 6 8 10 11 10 5 2 5 10 10 8 5 5 5 6 6 10 4 2 6 10 7 9 14 15 13 14 15 14 15 22 30 34 35 36 36 38 39 38 38 39 41 42 43 45 46 48 48 48 48 49 49 49 50 50 51 52 51 47 44 42 41 39 38 37 36 34 33 31 29 29 28 28 28 28 27 26 25 24 23 22 22 21
4 3 4 3 6 11 11 11 9 6 7 8 9 11 7 6 8 10 13 14 5 2 12 15 11 11 14 16 15 15 16 16 20 28 34 36 34 35 37 38 37 36 38 41 42 43 43 45 46 47 47 47 48 49 50 50 50 50 51 52 52 49 47 44 42 40 39 39 37 35 33 30 29 29 29 29 29 29 28 27 26 25 24 24 23 22
4 3 3 2 5 11 11 11 9 6 6 6 8 10 8 8 11 11 13 13 7 9 16 18 17 16 14 14 15 17 22 25 27 31 35 36 34 35 38 36 34 37 40 42 44 45 45 45 46 46 47 47 47 48 49 50 50 50 50 51 51 50 49 46 43 41 41 40 38 35 32 31 30 29 30 30 30 29 28 28 27 26 26 26 25 24
2 2 1 3 3 9 9 7 5 3 5 7 9 10 7 6 7 7 8 8 6 9 13 13 13 12 10 11 14 21 27 27 25 29 34 37 37 36 35 33 35 40 43 44 45 46 46 47 47 47 48 48 49 48 48 48 48 49 49 49 50 50 49 47 44 42 41 40 38 35 33 32 31 30 30 31 30 30 29 29 28 28 27 28 27 25
2 2 2 5 3 7 4 5 7 7 6 5 8 9 5 2 3 4 5 6 6 6 9 8 6 6 7 12 17 22 24 22 22 26 30 36 41 37 30 30 36 41 42 44 45 46 47 48 49 49 50 50 50 49 47 46 46 47 47 48 49 48 47 46 44 43 42 40 38 36 34 33 32 31 31 31 30 30 30 29 29 29 29 29 29 27
3 2 1 3 1 6 4 6 8 9 6 3 4 4 2 3 3 3 4 6 7 5 5 5 5 7 10 13 16 18 18 18 21 25 29 35 37 33 30 34 40 41 42 43 44 45 46 48 49 49 49 49 49 48 46 44 42 43 43 45 45 45 45 45 44 43 43 41 39 38 35 34 33 32 32 31 30 30 30 30 31 30 30 30 30 29
3 4 1 1 1 5 8 8 7 6 4 3 3 1 2 4 4 3 8 11 6 4 4 5 6 9 12 12 13 15 19 23 26 31 34 31 26 25 34 42 44 44 44 45 45 46 47 48 49 49 49 48 47 45 44 42 40 39 40 41 42 41 42 43 44 43 43 42 41 39 37 35 34 33 33 32 31 31 31 31 31 31 31 31 31 31
4 4 1 1 1 4 5 7 6 3 4 6 3 2 4 7 6 6 9 11 5 3 4 7 8 11 14 16 18 21 27 33 37 38 30 20 19 28 38 42 43 44 45 45 46 47 47 48 49 49 49 49 47 46 44 42 41 40 39 39 39 39 40 41 43 44 45 44 43 41 38 36 35 34 33 32 31 31 31 31 32 32 31 32 32 33
5 4 2 2 1 2 3 4 2 5 6 3 1 1 3 3 2 3 7 8 4 2 4 9 12 15 21 25 27 28 34 41 42 34 18 13 25 38 41 41 42 42 43 44 44 45 45 47 48 47 47 48 49 48 46 44 43 41 40 39 39 38 38 39 42 45 46 45 44 42 39 36 36 34 32 32 32 32 32 31 31 32 32 32 33 33
6 4 1 1 1 1 0 1 3 6 7 5 3 4 4 3 4 4 5 6 4 0 9 12 13 18 24 28 30 33 36 35 30 22 16 20 35 43 42 42 42 40 41 43 43 44 45 46 47 47 47 49 50 49 48 46 45 43 42 41 40 39 39 39 42 45 46 46 45 44 40 37 36 34 32 31 32 32 32 31 31 31 31 32 34 34
4 2 3 2 1 2 1 3 4 5 3 2 4 7 6 7 7 4 2 5 4 6 18 16 13 18 23 26 31 34 31 22 15 17 26 36 44 46 45 44 43 41 42 42 42 44 47 48 49 48 48 49 49 48 48 48 46 44 44 43 41 40 40 41 44 45 46 46 46 44 41 38 36 34 31 31 32 32 32 31 30 30 31 32 34 34
5 3 4 2 1 2 2 1 2 2 4 3 5 11 13 12 6 1 1 5 4 14 26 20 16 21 23 25 30 27 19 12 10 20 38 48 50 50 48 47 47 47 46 46 45 46 48 49 50 49 49 49 48 47 48 49 47 45 44 43 41 41 41 42 43 44 45 46 46 44 41 38 37 34 31 32 33 32 31 30 29 29 30 32 34 35
5 4 3 1 2 1 2 1 2 4 5 3 6 16 19 10 0 3 5 6 8 22 30 24 21 24 24 28 28 17 10 10 15 29 46 52 50 49 48 48 50 50 50 50 49 48 49 50 49 50 50 49 47 46 46 48 49 48 46 45 42 42 43 43 41 42 44 46 46 45 43 40 38 35 32 32 33 32 31 30 29 29 31 32 34 35
3 2 1 1 2 2 3 3 3 4 4 4 9 18 19 9 2 4 6 10 18 30 33 29 28 27 26 28 25 17 18 26 32 41 49 49 48 49 50 50 51 50 50 50 49 48 48 48 48 50 50 48 46 45 44 45 47 48 49 48 46 46 45 42 41 42 43 44 45 46 45 43 41 37 34 32 32 31 31 30 29 29 30 32 33 35
1 1 1 1 2 1 3 3 4 5 3 5 14 18 16 9 2 4 13 21 27 31 32 32 31 29 29 30 28 28 34 40 43 45 48 49 50 51 52 52 51 51 51 51 50 49 46 46 48 51 51 49 47 45 43 42 44 46 48 50 50 49 46 42 41 42 43 43 45 45 45 44 42 39 35 33 33 32 31 31 30 29 30 31 33 34
1 1 2 2 2 1 0 0 3 3 2 11 17 12 9 6 8 15 24 30 30 30 31 32 31 30 31 32 33 37 41 43 45 48 50 52 53 52 53 53 52 52 52 51 51 49 45 44 46 51 55 52 49 47 42 39 42 45 47 52 53 50 48 46 42 41 42 43 44 44 44 43 43 40 37 34 34 32 30 30 30 30 30 31 31 33
1 1 2 3 2 2 1 1 2 5 12 19 16 8 10 15 17 21 26 30 32 34 32 32 34 35 35 34 37 41 42 43 46 48 50 53 53 52 53 54 53 53 53 52 53 50 45 43 47 55 58 54 51 48 40 37 44 49 51 58 59 53 50 49 44 41 42 42 43 44 43 42 42 41 38 36 34 32 31 31 31 31 31 31 31 32
1 1 1 3 3 1 4 8 9 14 22 25 21 20 25 25 22 26 29 31 34 36 34 34 37 40 41 41 41 42 43 44 46 48 50 51 51 51 52 54 55 56 54 54 55 51 45 44 49 55 58 57 53 46 37 38 47 52 55 62 63 55 51 50 47 43 41 41 42 42 41 41 42 42 40 37 35 33 31 31 31 31 31 31 30 31
1 2 1 2 3 6 7 10 14 18 24 30 33 32 29 27 28 32 34 35 37 39 39 39 40 42 44 42 40 41 44 45 46 49 50 50 50 52 55 58 60 59 57 56 56 50 44 46 53 58 60 57 49 41 40 46 50 52 58 65 62 54 51 50 48 44 41 40 40 40 40 40 41 42 41 38 36 33 31 31 31 31 30 31 31 31
3 6 4 2 3 5 5 8 14 19 26 34 38 33 27 29 34 35 36 39 41 42 42 43 43 44 44 41 39 40 44 45 45 47 49 50 51 53 57 62 64 61 59 58 54 48 45 50 56 57 55 51 46 46 51 54 54 56 63 63 56 51 50 50 48 45 41 39 39 39 39 39 40 40 41 40 36 34 32 31 31 31 30 30 30 30
6 9 7 2 2 4 8 14 22 28 29 28 26 26 29 35 39 39 39 40 40 41 42 43 43 43 44 42 40 40 43 45 44 45 48 51 51 53 60 65 64 60 59 56 50 46 48 51 53 51 50 51 55 59 60 60 62 64 62 55 50 49 50 50 48 44 40 38 38 38 39 38 38 39 40 40 37 34 32 31 31 30 29 28 28 28
8 9 7 4 5 6 9 15 24 27 23 19 20 26 33 37 41 43 42 41 40 41 43 45 45 44 42 42 41 41 42 44 44 44 47 49 51 57 63 63 59 58 56 51 47 47 49 49 49 50 53 58 62 64 64 66 67 63 54 49 49 50 51 50 47 42 38 37 38 38 38 38 37 37 38 39 37 33 31 30 29 29 27 26 25 26
8 7 6 6 6 6 8 15 20 17 15 22 31 36 38 40 42 43 43 43 44 44 45 47 49 49 47 45 43 41 42 44 43 43 47 53 59 63 62 58 56 54 49 45 46 49 50 51 53 55 58 61 64 65 66 66 61 55 48 46 48 49 50 48 43 39 37 37 38 38 38 36 36 36 37 38 36 33 30 28 28 28 27 25 24 24
14 12 11 8 7 10 17 25 26 20 20 30 39 42 41 41 41 42 44 47 47 47 46 46 48 51 51 50 48 45 43 42 42 45 54 62 64 60 57 56 52 47 44 45 48 50 54 58 59 58 61 66 68 66 63 59 53 49 47 47 48 49 48 43 38 37 38 38 38 38 36 35 35 35 36 36 35 33 30 27 27 27 26 24 23 22
Wind_Direction
56 69 103 197 206 204 205 164 138 136 134 135 142 177 213 236 273 257 267 277 183 262 262 233 254 273 270 259 259 247 219 219 232 236 240 241 243 244 246 250 253 255 264 271 271 270 269 265 263 263 264 267 270 274 276 278 281 282 284 285 288 293 297 301 304 306 309 312 314 317 319 321 322 323 324 323 325 324 317 306 295 284 278 277 275 271
50 92 192 221 197 170 168 146 115 104 106 107 142 204 255 226 257 257 256 286 306 312 268 280 309 288 279 264 250 234 205 219 227 227 236 240 242 246 247 252 256 260 267 270 271 273 272 267 264 263 264 267 271 274 276 278 280 281 281 284 287 292 296 300 303 305 308 311 313 316 319 321 321 323 323 321 322 322 317 308 299 288 278 277 277 273
42 140 231 205 151 111 76 94 95 91 98 88 118 158 280 246 270 293 307 316 349 324 284 336 332 291 287 281 243 216 207 227 229 227 236 240 243 247 250 255 259 264 269 272 274 275 274 271 267 266 266 268 271 274 275 277 278 278 280 283 287 291 295 298 301 304 307 310 313 316 318 319 320 321 321 318 319 319 316 310 303 292 280 273 273 271
50 249 242 153 132 103 65 51 67 78 96 125 136 151 262 273 314 296 310 331 317 264 278 317 317 285 289 298 269 229 224 239 240 236 242 244 246 251 254 259 263 266 271 274 277 278 277 274 270 268 268 270 271 272 274 275 277 278 279 282 286 289 293 297 299 303 307 309 312 315 317 317 318 319 318 316 315 313 312 310 304 295 283 270 265 265
208 246 129 109 93 91 101 38 78 106 307 270 189 191 231 255 227 235 297 332 314 305 292 308 307 281 294 313 303 288 252 252 250 246 249 248 248 254 258 261 264 267 271 275 279 282 281 278 275 272 272 271 271 273 275 276 277 277 278 281 284 288 292 296 299 302 306 308 312 314 315 316 316 316 315 312 310 307 307 309 307 299 288 272 260 259
210 206 139 106 57 68 125 236 191 173 293 306 238 209 192 176 268 282 332 351 344 340 345 8 340 290 308 307 275 310 340 279 255 247 253 252 251 253 256 261 265 269 273 276 280 284 283 281 279 276 273 272 272 275 276 276 275 276 277 279 282 287 291 294 298 302 304 307 310 312 314 314 314 313 311 309 306 305 305 307 307 302 296 281 261 254
165 120 127 122 96 75 82 257 232 157 111 317 260 184 137 78 2 318 332 9 343 289 298 58 73 271 305 293 269 308 321 292 280 253 256 258 257 254 256 262 268 272 276 279 282 286 285 283 280 278 277 277 277 279 277 274 273 273 275 278 281 285 290 293 297 300 303 306 309 311 312 312 312 310 308 306 302 302 302 304 306 306 302 290 267 252
147 98 79 95 98 92 88 249 216 136 117 256 237 123 63 1 311 282 196 185 243 282 313 32 155 254 295 275 273 331 309 296 293 269 260 259 258 258 261 266 270 275 280 282 285 288 288 284 281 280 281 281 281 280 276 273 273 273 274 277 280 284 288 293 296 299 302 305 307 309 310 310 310 307 304 302 299 298 299 301 304 305 303 293 272 255
158 170 188 144 116 164 211 214 179 141 128 249 211 105 10 304 250 186 146 186 298 356 313 298 142 221 276 271 311 355 310 299 287 270 260 257 259 263 265 268 273 279 284 285 287 290 288 284 282 282 282 281 281 279 276 274 273 272 273 275 278 283 288 292 295 297 300 303 305 307 308 308 307 305 301 297 295 296 296 297 300 301 301 293 275 258
201 211 201 155 151 214 219 200 168 160 186 235 163 91 59 75 72 86 116 139 38 4 265 258 153 178 275 279 313 1 282 266 266 266 264 260 262 265 268 274 279 284 288 289 288 289 287 285 283 281 280 279 279 279 277 274 271 271 272 275 278 283 287 291 294 296 298 301 304 306 306 306 305 302 297 293 292 293 294 295 297 299 298 292 280 264
285 36 224 168 181 195 169 139 173 183 243 10 110 63 40 50 56 63 75 90 66 292 256 253 239 98 303 282 250 214 225 214 220 264 275 268 268 270 276 283 287 290 292 290 287 287 287 285 282 280 279 279 279 279 276 273 271 271 272 275 278 282 286 290 292 294 296 299 302 304 304 303 302 299 294 290 290 291 292 293 295 296 295 288 280 271
347 87 245 227 198 147 113 79 35 226 313 32 70 41 7 346 29 34 358 48 92 265 259 267 301 109 227 267 252 242 258 218 188 233 261 266 275 280 286 290 294 295 292 290 288 287 286 284 282 282 282 282 280 279 278 276 274 273 273 275 278 282 286 288 291 292 295 298 301 302 302 301 300 296 290 287 288 290 291 292 293 293 291 285 279 274
312 226 273 6 188 159 127 59 353 357 25 50 48 49 27 338 1 358 314 313 216 243 243 281 320 198 230 254 261 264 269 253 225 236 249 260 273 282 290 295 298 297 293 292 290 288 288 286 286 285 284 284 282 281 280 278 275 274 274 276 279 283 285 287 289 290 293 297 300 300 300 300 298 293 289 286 287 289 289 290 290 289 287 284 280 276
331 292 331 62 220 192 147 160 279 303 41 44 55 99 100 31 6 308 284 294 278 263 257 289 294 277 279 275 252 245 256 261 251 252 259 265 272 281 290 295 299 300 299 296 293 291 290 290 289 287 286 285 283 283 281 278 276 275 275 277 280 283 284 286 287 289 292 296 298 299 299 299 296 292 288 285 285 287 287 287 286 285 284 282 280 278
325 297 279 148 254 309 142 172 172 148 90 76 159 128 143 156 168 261 246 253 286 293 296 303 254 216 261 283 243 237 258 274 274 270 271 273 275 280 287 294 300 303 304 301 297 295 294 294 291 288 286 285 284 283 280 278 276 274 275 278 280 282 283 285 286 287 291 295 296 297 299 298 294 291 287 284 284 285 285 284 283 281 279 278 278 278
195 268 270 331 324 84 124 221 128 99 80 232 135 106 166 180 156 212 209 192 272 316 299 267 228 218 233 274 282 279 277 280 283 279 277 279 283 286 289 296 303 306 308 307 302 299 298 296 292 288 286 285 284 282 280 277 275 275 277 279 280 281 281 283 285 286 290 294 295 296 298 296 293 289 286 284 284 283 282 282 281 278 275 274 274 275
24 280 298 2 4 62 84 221 73 72 161 140 117 181 222 174 119 111 265 12 66 309 279 234 251 287 313 294 305 352 336 315 325 317 304 300 300 298 297 303 308 310 312 312 307 303 302 299 295 291 288 285 284 282 280 279 277 276 277 278 278 278 280 282 284 286 289 292 294 295 296 295 292 289 285 283 282 280 278 276 275 274 272 271 272 273
144 279 300 29 74 17 57 124 42 48 115 119 177 220 214 109 88 97 287 342 40 261 273 255 252 287 332 297 319 2 347 325 331 330 322 315 310 307 308 312 314 315 316 315 312 308 304 302 299 295 291 288 285 283 281 279 277 275 275 276 276 277 280 283 283 284 287 290 292 293 294 293 292 289 286 283 281 279 277 274 272 272 271 271 272 273
122 288 304 2 171 311 6 87 9 13 65 120 181 189 111 149 243 66 134 280 322 281 285 285 276 261 206 238 303 333 315 305 310 316 317 310 309 312 314 317 319 320 320 318 316 313 309 306 303 299 295 292 288 284 281 278 275 274 274 275 276 277 279 281 281 283 286 289 291 292 293 293 291 289 286 284 281 278 276 274 274 273 273 273 273 273
107 109 287 285 231 307 3 108 234 307 40 53 88 22 42 153 189 176 158 185 195 279 292 307 314 273 214 211 229 276 285 293 301 306 301 297 308 314 315 318 320 322 322 321 320 318 315 311 307 303 298 294 290 285 281 277 275 275 275 275 275 276 278 279 280 282 285 288 290 290 291 291 290 288 285 282 278 275 275 274 273 275 274 273 273 274
71 113 256 293 319 298 265 210 201 184 146 88 131 238 312 111 165 214 243 153 145 207 236 297 298 273 222 192 204 262 285 284 283 288 291 303 313 317 318 320 322 323 324 325 324 323 320 316 312 307 301 296 291 285 281 278 276 275 274 274 275 276 277 278 279 280 283 286 287 288 289 290 289 287 283 280 277 274 274 273 273 275 275 274 273 273
75 156 216 291 310 245 239 247 198 179 166 153 179 206 189 147 122 63 284 286 110 195 184 198 282 279 205 177 218 254 270 274 291 296 299 308 315 318 320 323 324 323 324 326 326 326 324 321 318 312 306 299 293 288 283 280 278 276 275 275 276 276 276 277 278 279 282 284 285 286 288 289 288 285 282 280 276 274 273 272 273 274 273 272 271 270
136 114 166 271 261 241 261 314 73 163 150 135 179 197 154 137 130 157 247 270 226 233 160 122 276 283 160 190 230 229 248 304 319 319 313 314 318 321 322 323 324 323 324 326 327 327 327 326 323 318 312 306 299 292 287 282 279 278 277 277 276 275 276 277 277 278 280 281 284 286 287 287 286 284 281 279 276 274 272 271 272 271 269 267 265 262
119 89 18 283 286 312 328 1 36 58 92 113 261 146 139 155 139 159 192 193 210 226 139 97 276 277 292 248 240 250 321 330 329 327 324 320 321 323 323 323 324 324 325 327 328 330 331 331 328 325 320 315 308 300 291 286 282 280 279 277 276 276 277 276 276 277 278 280 283 285 285 286 286 284 281 279 276 274 271 270 269 267 265 262 259 255
235 233 53 328 322 334 342 353 352 348 41 215 253 230 163 128 99 117 171 121 267 225 165 181 267 266 267 316 311 320 333 335 330 329 329 323 321 324 326 325 326 326 327 329 331 333 334 334 332 330 327 322 317 309 300 292 286 282 280 278 277 277 277 276 275 275 277 279 280 282 284 285 285 283 281 279 277 273 270 268 265 262 260 257 254 251
219 219 119 285 297 300 303 311 308 297 293 257 235 219 208 152 138 173 168 124 246 234 163 179 259 275 298 318 315 319 330 331 328 330 327 322 321 325 326 326 327 328 329 331 333 335 335 334 333 332 331 328 323 318 310 301 293 287 282 279 278 277 276 276 275 274 275 277 278 281 283 284 284 282 281 279 276 273 269 265 262 259 256 253 250 246
88 262 209 193 209 238 259 267 250 84 297 282 273 239 207 189 173 135 95 205 221 221 216 226 251 281 296 302 305 316 327 327 326 326 320 317 320 324 325 325 325 327 329 333 335 336 335 333 333 333 333 330 328 323 317 309 301 293 286 281 279 278 277 275 273 272 273 275 277 280 282 283 284 282 279 276 274 271 267 263 260 256 252 249 246 243
86 300 246 203 223 246 261 273 288 323 274 269 274 266 222 185 169 151 203 238 221 78 279 262 251 270 285 294 306 317 322 322 319 316 313 312 317 321 322 323 325 328 333 335 336 335 335 334 334 334 333 331 329 326 321 316 310 302 294 286 281 277 276 274 270 270 272 273 275 278 281 283 284 280 276 274 272 268 264 261 257 253 249 245 242 240
122 251 245 191 250 267 270 277 276 268 262 255 263 271 254 192 182 193 228 244 220 200 266 275 279 278 287 300 308 311 313 312 312 311 311 312 317 322 324 325 328 332 336 336 336 336 336 336 335 334 332 332 331 328 325 321 315 310 303 295 285 278 275 272 269 269 271 272 274 277 280 282 281 278 274 271 269 266 262 259 254 250 246 243 240 239
141 238 241 153 285 280 270 273 271 256 265 270 266 268 256 220 210 214 240 255 245 242 260 275 286 286 288 292 295 303 308 310 311 312 313 316 322 326 325 326 332 336 336 336 335 336 336 335 335 334 333 332 331 330 327 324 320 315 309 302 292 282 275 271 268 269 270 272 274 277 279 279 278 276 272 270 268 265 261 257 252 248 244 241 239 237
160 261 266 103 316 284 271 283 290 253 258 277 282 278 264 246 237 228 246 262 256 253 261 276 287 285 283 287 296 308 313 315 316 317 318 320 323 324 325 330 336 336 334 335 335 335 335 334 334 334 334 334 333 332 329 327 325 319 312 308 300 288 277 270 268 269 270 272 274 275 276 277 277 275 272 270 268 265 260 256 251 246 243 240 238 236
157 269 1 64 348 283 287 345 322 302 291 287 297 296 275 213 221 220 227 229 219 247 278 293 293 282 295 308 310 311 314 316 315 317 320 320 319 322 327 333 336 333 333 333 333 333 334 334 335 335 335 336 336 336 334 331 328 324 319 316 309 296 280 272 270 270 270 272 273 273 275 276 276 274 272 270 268 266 261 256 251 246 242 240 237 235
146 150 15 54 314 274 310 343 313 314 334 327 309 303 241 218 253 256 268 253 219 224 284 292 278 289 308 316 315 314 316 317 315 317 318 314 313 321 331 334 333 332 331 331 331 331 333 333 333 334 335 337 338 339 339 336 331 328 326 322 314 301 285 275 272 270 270 272 273 273 274 276 275 274 272 270 269 266 261 256 252 247 243 240 238 236
134 121 137 138 210 273 302 325 326 344 348 267 248 166 225 275 273 246 283 289 258 196 232 264 282 301 309 311 312 312 314 315 315 316 316 312 313 329 336 333 332 330 329 329 329 329 330 330 331 332 333 335 337 339 339 338 335 331 328 324 317 306 292 280 273 271 272 273 274 274 274 275 275 275 273 271 270 267 263 258 254 250 246 242 239 236
127 113 145 178 173 268 307 354 359 328 250 245 239 195 238 252 223 216 264 282 265 205 264 292 300 305 311 317 318 316 317 318 318 319 320 322 333 339 335 330 328 327 326 326 327 327 327 328 328 329 330 332 335 337 337 336 334 332 329 325 318 310 299 285 276 273 274 275 275 273 273 274 276 276 275 273 270 268 265 261 256 252 248 244 241 238
137 138 160 174 185 275 340 27 342 275 286 310 341 274 277 277 265 285 291 277 233 195 325 322 320 322 326 327 326 325 324 322 319 319 322 331 334 334 330 326 325 324 322 323 324 323 324 326 326 325 326 329 333 337 338 336 334 332 329 324 319 312 302 289 280 277 276 277 277 274 273 275 277 277 276 274 271 269 267 264 260 255 251 248 244 240
138 140 166 254 227 175 253 277 273 303 331 8 17 324 312 318 308 302 304 281 222 85 347 336 329 329 328 326 327 328 328 324 317 316 322 328 328 328 325 322 321 320 320 321 321 322 323 324 324 325 326 329 332 336 337 336 336 334 331 326 321 313 303 292 285 282 280 280 279 276 274 276 276 275 275 273 271 269 269 267 264 259 254 251 247 243
105 138 174 213 261 91 69 305 328 343 317 285 316 312 307 306 287 232 240 270 240 350 348 342 331 327 326 325 327 329 330 326 311 311 322 326 326 324 322 320 320 319 321 322 323 324 325 325 325 325 326 328 330 332 334 334 334 334 333 331 325 316 306 296 291 289 286 284 282 278 275 275 274 273 271 270 270 269 269 269 266 262 257 254 250 246
44 37 109 119 333 48 95 261 286 266 247 246 322 329 331 324 300 195 300 271 268 343 344 338 326 324 324 322 325 328 328 322 306 312 320 323 322 322 321 320 320 321 323 324 325 325 325 326 326 325 325 325 326 329 331 332 332 332 332 332 328 319 310 304 301 299 294 289 284 280 276 273 272 270 268 268 269 268 267 268 266 263 259 255 252 249
26 13 59 89 271 155 133 210 241 243 255 271 321 330 332 324 227 56 329 285 316 336 335 331 323 321 321 320 322 325 318 309 305 309 315 317 317 317 318 318 320 321 322 323 324 325 326 325 324 323 323 322 323 326 328 329 331 330 330 330 326 319 317 316 313 307 297 289 284 279 275 272 269 267 266 267 269 269 267 265 263 261 258 255 252 250
24 11 50 137 194 190 184 222 270 267 258 291 324 337 342 341 57 38 315 301 324 327 325 325 321 318 320 321 320 316 308 307 307 308 311 314 314 315 318 319 320 320 320 321 321 322 323 323 323 322 320 319 320 322 324 326 328 329 329 327 322 321 324 323 317 307 297 290 286 280 275 272 269 266 266 266 267 267 265 262 260 259 257 255 252 251
44 26 13 129 169 197 170 185 300 285 242 336 339 347 4 11 348 305 305 311 319 319 318 321 318 317 321 321 317 314 311 311 312 312 313 315 316 317 319 319 319 319 318 318 319 319 320 320 321 322 320 318 317 318 320 323 325 328 329 326 320 320 323 321 314 309 302 295 289 283 277 273 269 266 264 264 264 265 264 262 259 257 256 254 252 250
189 227 315 231 193 3 34 344 329 268 267 351 349 356 23 6 297 300 310 313 316 318 318 318 316 317 320 319 317 316 314 314 316 316 316 317 318 319 319 319 318 318 317 317 316 316 316 318 321 322 320 317 316 314 315 320 323 325 327 327 324 320 317 315 313 310 306 298 292 286 280 275 270 265 262 262 263 264 264 261 258 257 256 254 252 250
197 145 335 265 207 86 41 266 278 274 307 337 347 335 320 315 308 314 318 316 317 320 320 316 316 318 320 319 318 317 315 316 316 316 317 317 318 319 320 319 319 317 316 316 316 314 314 317 322 323 321 318 316 312 311 320 325 323 323 327 327 320 313 312 310 308 306 302 295 289 283 276 270 263 260 260 262 263 262 260 258 257 256 255 252 250
218 178 275 243 222 223 247 252 274 297 312 324 327 317 314 316 320 325 323 317 316 318 318 317 316 317 319 319 317 315 314 315 315 315 316 316 318 320 320 320 319 317 316 316 315 313 312 317 323 324 321 318 315 310 313 324 327 322 321 324 324 318 313 310 307 304 306 304 298 291 284 277 270 264 259 258 260 261 261 260 258 257 257 256 254 251
269 348 303 220 272 294 274 272 291 309 320 322 319 317 316 318 322 326 324 320 317 317 317 316 314 314 315 315 313 312 311 312 313 314 315 317 319 322 322 322 321 318 316 316 314 312 313 320 325 324 320 318 316 316 321 325 324 321 321 321 319 315 312 309 304 303 305 304 299 293 284 277 271 265 259 257 258 260 260 259 258 257 257 257 256 253
336 1 341 265 312 320 305 306 312 317 320 318 314 314 316 318 321 323 322 319 317 316 316 314 312 312 311 311 310 309 309 311 312 313 315 317 319 321 323 322 320 318 316 314 312 313 318 324 327 325 321 320 321 323 324 323 322 322 321 319 317 314 311 308 304 302 303 303 298 292 284 278 273 267 260 256 256 258 258 257 256 255 255 257 257 256
328 348 341 297 307 301 281 293 308 314 314 312 309 312 317 319 320 320 320 318 315 314 313 312 312 311 310 310 311 309 308 311 312 312 313 316 318 321 322 321 319 317 315 313 312 318 324 326 327 325 322 321 322 322 322 321 321 321 320 318 318 316 311 307 305 303 302 301 296 289 283 278 273 267 260 255 255 257 257 258 258 258 258 260 261 260
320 331 333 307 297 286 276 298 317 321 316 312 312 314 317 319 319 319 319 318 317 316 316 316 315 314 312 311 310 309 308 308 310 312 314 316 319 321 321 320 318 316 315 314 319 325 326 325 324 321 317 317 318 319 319 318 318 319 320 320 320 317 311 308 306 303 301 300 295 289 284 279 273 267 259 254 253 255 258 260 261 260 261 260 261 261
350 334 333 331 324 312 306 319 328 326 311 309 315 317 319 321 321 319 319 320 320 320 320 319 319 318 317 315 313 310 307 307 311 316 317 318 320 321 320 319 317 316 316 321 326 327 324 321 320 318 316 316 317 317 317 317 317 319 320 321 322 319 314 309 306 304 302 301 296 291 286 279 273 265 257 252 251 253 257 258 258 259 259 258 259 260
1 341 334 330 311 303 308 316 321 317 303 306 313 318 320 322 322 321 321 322 321 322 322 321 320 319 318 317 316 311 307 310 317 321 321 321 321 322 323 321 318 317 321 326 326 324 322 320 319 318 317 318 318 318 318 318 319 320 321 322 322 319 315 312 310 308 307 304 299 294 287 280 272 264 257 252 249 251 254 256 257 258 258 258 259 259